"2010-10-01 00:00:00",207661,1.976,315.8,2.394,0.075,17.8,107.569,18.65,19.5,37.23,0,111,13.15,19.47,277.8
"2010-10-01 00:00:30",207662,2.152,332.1,6.94,0.169,17.9,107.5703,18.66,19.51,37.16,0,111,13.15,19.47,294.1
"2010-10-01 00:01:00",207663,3.218,332.3,2.776,0.451,17.75,107.5742,18.67,19.5,37.4,0,111,13.15,19.48,294.3
"2010-10-01 00:01:30",207664,3.066,318.7,5.52,0.377,17.84,107.5646,18.64,19.49,37.46,0,111,13.14,19.46,280.7
"2010-10-01 00:02:00",207665,2.772,320.7,3.436,0.144,17.86,107.5523,18.61,19.49,37.34,0,111,13.14,19.43,282.7
"2010-10-01 00:02:30",207666,3.003,323.9,2.299,0.162,17.78,107.5508,18.61,19.48,37.58,0,111,13.14,19.42,285.9
"2010-10-01 00:03:00",207667,3.007,322.5,1.09,0.152,17.87,107.5441,18.59,19.47,37.65,0,111,13.14,19.41,284.5
"2010-10-01 00:03:30",207668,2.933,319.5,2.722,0.106,17.85,107.5438,18.59,19.46,37.68,0,111,13.14,19.41,281.5
"2010-10-01 00:04:00",207669,3.328,317,1.64,0.158,17.88,107.537,18.57,19.44,37.76,0,111,13.14,19.39,279.0
"2010-10-01 00:04:30",207670,2.981,323.7,2.772,0.171,17.96,107.5337,18.56,19.45,37.69,0,111,13.14,19.38,285.7
"2010-10-01 00:05:00",207671,3.003,325.2,2.122,0.123,17.95,107.5384,18.58,19.43,37.55,0,111,13.14,19.39,287.2
"2010-10-01 00:05:30",207672,2.985,322,3.485,0.099,18.02,107.5438,18.59,19.44,37.69,0,111,13.14,19.41,284.0
"2010-10-01 00:06:00",207673,3.107,319.6,1.723,0.11,17.94,107.532,18.56,19.43,37.83,0,111,13.14,19.38,281.6
"2010-10-01 00:06:30",207674,3.046,319.5,1.402,0.068,17.97,107.525,18.54,19.4,37.91,0,111,13.15,19.36,281.5
"2010-10-01 00:07:00",207675,2.956,316.9,1.024,0.077,17.87,107.5185,18.52,19.4,38.06,0,111,13.15,19.34,278.9
"2010-10-01 00:07:30",207676,2.981,318.5,3.614,0.092,17.94,107.5185,18.52,19.39,37.98,0,111,13.15,19.34,280.5
"2010-10-01 00:08:00",207677,2.843,314.7,1.622,0.125,17.93,107.5185,18.52,19.39,37.91,0,111,13.15,19.34,276.7
"2010-10-01 00:08:30",207678,2.753,315.9,3.508,0.175,17.93,107.5185,18.52,19.4,37.83,0,111,13.15,19.34,277.9
"2010-10-01 00:09:00",207679,2.888,320.5,2.019,0.169,18.04,107.5185,18.52,19.4,37.65,0,111,13.15,19.34,282.5
"2010-10-01 00:09:30",207680,2.925,319.7,1.356,0.11,18.09,107.5188,18.53,19.4,37.61,0,111,13.15,19.34,281.7
"2010-10-01 00:10:00",207681,2.967,320.4,1.658,0.097,18.12,107.5188,18.53,19.4,37.57,0,111,13.15,19.34,282.4
"2010-10-01 00:10:30",207682,3.106,320.9,2.626,0.078,18.06,107.5191,18.53,19.4,37.65,0,111,13.15,19.34,282.9
"2010-10-01 00:11:00",207683,2.995,322.4,1.506,0.071,18.09,107.5207,18.53,19.4,37.59,0,111,13.15,19.35,284.4
"2010-10-01 00:11:30",207684,3.076,323.5,1.424,0.082,17.92,107.5213,18.53,19.4,37.59,0,111,13.15,19.35,285.5
"2010-10-01 00:12:00",207685,3.392,327.3,0.959,0.109,18.01,107.5197,18.53,19.39,37.76,0,111,13.15,19.34,289.3
"2010-10-01 00:12:30",207686,3.394,327.3,1.236,0.082,18.09,107.5044,18.49,19.39,37.83,0,111,13.16,19.31,289.3
"2010-10-01 00:13:00",207687,3.137,324.5,1.907,0.108,17.94,107.4993,18.48,19.37,37.66,0,111,13.16,19.29,286.5
"2010-10-01 00:13:30",207688,2.907,325.4,2.146,0.037,18.19,107.5064,18.49,19.38,37.48,0,111,13.16,19.31,287.4
"2010-10-01 00:14:00",207689,2.837,329.1,2.074,0.074,18.16,107.5235,18.54,19.39,37.43,0,111,13.16,19.35,291.1
"2010-10-01 00:14:30",207690,2.73,329.3,1.938,0.081,18.27,107.5306,18.56,19.39,37.46,0,110.9,13.16,19.37,291.3
"2010-10-01 00:15:00",207691,2.63,331,1.949,0.093,18.19,107.535,18.57,19.39,37.48,0,110.9,13.16,19.38,293.0
"2010-10-01 00:15:30",207692,2.551,331.1,1.899,0.188,18,107.5371,18.57,19.38,37.52,0,110.9,13.16,19.39,293.1
"2010-10-01 00:16:00",207693,2.411,332.5,3.554,0.136,17.92,107.5404,18.58,19.39,37.48,0,110.9,13.16,19.40,294.5
"2010-10-01 00:16:30",207694,2.515,335.3,1.411,0.114,18.24,107.5449,18.59,19.4,37.42,0,110.9,13.16,19.41,297.3
"2010-10-01 00:17:00",207695,2.703,336.1,1.508,0.089,18.15,107.5454,18.59,19.4,37.37,0,110.9,13.16,19.41,298.1
"2010-10-01 00:17:30",207696,2.658,337,1.64,0.084,18.24,107.5457,18.59,19.41,37.24,0,110.9,13.16,19.41,299.0
"2010-10-01 00:18:00",207697,2.542,338.1,1.24,0.076,18.33,107.546,18.6,19.42,37.15,0,110.9,13.16,19.41,300.1
"2010-10-01 00:18:30",207698,2.727,335.6,1.761,0.095,18.16,107.5485,18.6,19.43,37.12,0,110.9,13.16,19.42,297.6
"2010-10-01 00:19:00",207699,2.678,335.6,1.674,0.06,18.33,107.55,18.61,19.43,37.15,0,110.9,13.16,19.42,297.6
"2010-10-01 00:19:30",207700,2.541,336.1,1.592,0.05,18.41,107.5533,18.61,19.43,37.07,0,110.9,13.15,19.43,298.1
"2010-10-01 00:20:00",207701,2.52,331,2.592,0.079,18.17,107.5548,18.62,19.43,37.06,0,110.9,13.15,19.43,293.0
"2010-10-01 00:20:30",207702,2.613,330.1,0.994,0.058,18.35,107.5548,18.62,19.44,37.08,0,110.9,13.15,19.43,292.1
"2010-10-01 00:21:00",207703,2.573,328.7,1.289,0.078,18.22,107.5526,18.61,19.43,37.07,0,110.9,13.15,19.43,290.7
"2010-10-01 00:21:30",207704,2.625,328.5,1.102,0.068,18.33,107.5483,18.6,19.44,37.04,0,110.9,13.15,19.42,290.5
"2010-10-01 00:22:00",207705,2.654,326.9,1.103,0.061,18.29,107.5396,18.58,19.42,37.05,0,110.9,13.16,19.40,288.9
"2010-10-01 00:22:30",207706,2.693,326.7,1.106,0.069,18.41,107.5337,18.56,19.43,37.06,0,110.9,13.15,19.38,288.7
"2010-10-01 00:23:00",207707,2.746,326.3,1.038,0.063,18.46,107.5295,18.55,19.42,37.06,0,110.9,13.16,19.37,288.3
"2010-10-01 00:23:30",207708,2.782,325.7,1.516,0.057,18.44,107.5292,18.55,19.42,37.04,0,110.9,13.16,19.37,287.7
"2010-10-01 00:24:00",207709,2.645,323.7,1.976,0.09,18.17,107.5273,18.55,19.44,37,0,110.9,13.16,19.36,285.7
"2010-10-01 00:24:30",207710,2.634,320.6,1.18,0.065,18.02,107.5287,18.55,19.42,37,0,110.9,13.17,19.37,282.6
"2010-10-01 00:25:00",207711,2.773,322.5,2.328,0.087,18.35,107.5292,18.55,19.43,36.98,0,110.9,13.17,19.37,284.5
"2010-10-01 00:25:30",207712,2.711,321.9,1.486,0.063,18.15,107.5307,18.56,19.44,36.95,0,110.9,13.17,19.37,283.9
"2010-10-01 00:26:00",207713,2.714,323.5,1.424,0.081,18.32,107.5322,18.56,19.44,36.92,0,110.9,13.17,19.38,285.5
"2010-10-01 00:26:30",207714,2.658,321.4,1.253,0.064,18.17,107.5383,18.58,19.44,36.89,0,110.9,13.17,19.39,283.4
"2010-10-01 00:27:00",207715,2.453,320.2,1.271,0.058,18.37,107.5427,18.59,19.46,36.87,0,110.9,13.17,19.40,282.2
"2010-10-01 00:27:30",207716,2.398,320.5,1.085,0.064,18.5,107.5542,18.62,19.46,36.83,0,110.9,13.17,19.43,282.5
"2010-10-01 00:28:00",207717,2.38,321.1,0.685,0.055,18.5,107.5647,18.64,19.48,36.77,0,110.9,13.17,19.46,283.1
"2010-10-01 00:28:30",207718,2.437,319.3,0.93,0.069,18.5,107.574,18.67,19.49,36.76,0,110.9,13.17,19.48,281.3
"2010-10-01 00:29:00",207719,2.594,320,0.944,0.076,18.17,107.5758,18.67,19.48,36.75,0,110.9,13.17,19.49,282.0
"2010-10-01 00:29:30",207720,2.39,319.3,1.013,0.064,18.6,107.5777,18.68,19.5,36.74,0,110.9,13.17,19.49,281.3
"2010-10-01 00:30:00",207721,2.323,319.2,1.099,0.03,18.67,107.5812,18.69,19.5,36.69,0,110.9,13.17,19.50,281.2
"2010-10-01 00:30:30",207722,2.356,319.7,0.901,0.036,18.61,107.5835,18.69,19.51,36.66,0,110.9,13.18,19.51,281.7
"2010-10-01 00:31:00",207723,2.346,320.5,0.611,0.034,18.63,107.5841,18.69,19.52,36.65,0,110.9,13.18,19.51,282.5
"2010-10-01 00:31:30",207724,2.339,320.2,0.503,0.031,18.65,107.5893,18.71,19.52,36.63,0,110.9,13.18,19.52,282.2
"2010-10-01 00:32:00",207725,2.423,320.3,0.748,0.044,18.48,107.5899,18.71,19.53,36.61,0,110.9,13.18,19.53,282.3
"2010-10-01 00:32:30",207726,2.415,318.8,1.012,0.061,18.61,107.5894,18.71,19.52,36.61,0,110.9,13.18,19.52,280.8
"2010-10-01 00:33:00",207727,2.409,319.9,0.828,0.038,18.64,107.5874,18.7,19.53,36.6,0,110.9,13.18,19.52,281.9
"2010-10-01 00:33:30",207728,2.363,319.3,0.76,0.047,18.76,107.5883,18.7,19.53,36.57,0,110.9,13.18,19.52,281.3
"2010-10-01 00:34:00",207729,2.431,318.6,0.536,0,18.73,107.5857,18.7,19.53,36.57,0,110.9,13.18,19.51,280.6
"2010-10-01 00:34:30",207730,2.465,317.9,0.933,0.041,18.74,107.5857,18.7,19.54,36.54,0,110.9,13.18,19.51,279.9
"2010-10-01 00:35:00",207731,2.526,317.8,0.474,0.046,18.64,107.5855,18.7,19.53,36.54,0,110.9,13.18,19.51,279.8
"2010-10-01 00:35:30",207732,2.523,317.2,0.877,0.027,18.73,107.5835,18.69,19.54,36.52,0,110.9,13.18,19.51,279.2
"2010-10-01 00:36:00",207733,2.463,316.2,0.568,0.044,18.82,107.5768,18.67,19.55,36.52,0,110.8,13.18,19.49,278.2
"2010-10-01 00:36:30",207734,2.502,316.5,0.711,0.028,18.78,107.5751,18.67,19.54,36.52,0,110.9,13.17,19.49,278.5
"2010-10-01 00:37:00",207735,2.447,316.6,0.911,0.048,18.81,107.5774,18.68,19.55,36.48,0,110.8,13.17,19.49,278.6
"2010-10-01 00:37:30",207736,2.472,317.9,0.551,0.036,18.82,107.5771,18.67,19.55,36.46,0,110.8,13.18,19.49,279.9
"2010-10-01 00:38:00",207737,2.453,319.1,0.709,0.033,18.84,107.5789,18.68,19.55,36.45,0,110.8,13.18,19.50,281.1
"2010-10-01 00:38:30",207738,2.343,318.4,0.775,0.043,18.78,107.5815,18.69,19.55,36.4,0,110.8,13.18,19.50,280.4
"2010-10-01 00:39:00",207739,2.356,319.6,1.105,0.044,18.82,107.5826,18.69,19.58,36.39,0,110.8,13.18,19.51,281.6
"2010-10-01 00:39:30",207740,2.304,320.2,0.9,0.042,18.76,107.586,18.7,19.56,36.38,0,110.8,13.18,19.52,282.2
"2010-10-01 00:40:00",207741,2.245,319.5,0.931,0.032,18.86,107.593,18.72,19.55,36.36,0,110.8,13.18,19.53,281.5
"2010-10-01 00:40:30",207742,2.269,320.8,0.657,0.036,18.7,107.6005,18.73,19.57,36.35,0,110.8,13.19,19.55,282.8
"2010-10-01 00:41:00",207743,2.251,321.1,0.629,0.035,18.67,107.6061,18.75,19.58,36.33,0,110.8,13.19,19.57,283.1
"2010-10-01 00:41:30",207744,2.266,321.9,0.949,0.038,18.67,107.6034,18.74,19.58,36.33,0,110.8,13.19,19.56,283.9
"2010-10-01 00:42:00",207745,2.251,325.5,2.219,0.06,18.75,107.5998,18.73,19.58,36.34,0,110.8,13.19,19.55,287.5
"2010-10-01 00:42:30",207746,2.29,325.2,1.504,0.072,18.64,107.5997,18.73,19.57,36.34,0,110.8,13.19,19.55,287.2
"2010-10-01 00:43:00",207747,2.485,327.7,1.07,0.079,18.63,107.5962,18.72,19.59,36.34,0,110.8,13.2,19.54,289.7
"2010-10-01 00:43:30",207748,2.681,328.3,1.368,0.08,18.82,107.5937,18.72,19.56,36.36,0,110.8,13.2,19.53,290.3
"2010-10-01 00:44:00",207749,2.723,328.6,0.961,0.041,18.9,107.5937,18.72,19.56,36.37,0,110.8,13.2,19.53,290.6
"2010-10-01 00:44:30",207750,2.678,328.6,1.221,0.046,18.86,107.5931,18.72,19.55,36.41,0,110.8,13.2,19.53,290.6
"2010-10-01 00:45:00",207751,2.733,328.6,0.867,0.071,18.91,107.5908,18.71,19.54,36.42,0,110.8,13.2,19.53,290.6
"2010-10-01 00:45:30",207752,2.853,327.3,1.025,0.075,18.88,107.5762,18.67,19.53,36.43,0,110.8,13.2,19.49,289.3
"2010-10-01 00:46:00",207753,2.846,327,1.689,0.071,18.88,107.5638,18.64,19.54,36.43,0,110.8,13.2,19.46,289.0
"2010-10-01 00:46:30",207754,2.955,325.9,1.246,0.06,18.72,107.5599,18.63,19.52,36.44,0,110.8,13.2,19.45,287.9
"2010-10-01 00:47:00",207755,2.832,325,1.306,0.061,19.01,107.5599,18.63,19.52,36.45,0,110.8,13.2,19.45,287.0
"2010-10-01 00:47:30",207756,2.928,325.4,1.767,0.068,18.79,107.5599,18.63,19.5,36.46,0,110.8,13.2,19.45,287.4
"2010-10-01 00:48:00",207757,2.866,324.7,0.935,0.072,18.92,107.5599,18.63,19.5,36.48,0,110.8,13.2,19.45,286.7
"2010-10-01 00:48:30",207758,2.841,323.1,0.837,0.041,18.98,107.5599,18.63,19.5,36.48,0,110.8,13.2,19.45,285.1
"2010-10-01 00:49:00",207759,2.85,323.4,0.736,0.063,18.99,107.5599,18.63,19.5,36.48,0,110.8,13.2,19.45,285.4
"2010-10-01 00:49:30",207760,2.892,323.8,1.637,0.047,18.91,107.5603,18.63,19.49,36.48,0,110.8,13.2,19.45,285.8
"2010-10-01 00:50:00",207761,2.879,323.3,1.354,0.028,18.99,107.5612,18.63,19.48,36.49,0,110.8,13.2,19.45,285.3
"2010-10-01 00:50:30",207762,2.834,323.4,1.426,0.065,18.98,107.5555,18.62,19.49,36.51,0,110.8,13.2,19.44,285.4
"2010-10-01 00:51:00",207763,2.842,324.1,1.026,0.045,19.06,107.5586,18.63,19.5,36.51,0,110.8,13.2,19.44,286.1
"2010-10-01 00:51:30",207764,2.838,323.4,1.122,0.043,18.99,107.5608,18.63,19.5,36.49,0,110.8,13.21,19.45,285.4
"2010-10-01 00:52:00",207765,2.925,321.6,1.471,0.108,18.92,107.5618,18.64,19.5,36.51,0,110.8,13.21,19.45,283.6
"2010-10-01 00:52:30",207766,3.04,321,0.848,0.034,18.88,107.5585,18.63,19.5,36.51,0,110.8,13.2,19.44,283.0
"2010-10-01 00:53:00",207767,3.068,321.7,2.041,0.105,18.84,107.5558,18.62,19.48,36.58,0,110.8,13.2,19.44,283.7
"2010-10-01 00:53:30",207768,3.184,319.4,0.472,0.037,18.75,107.5591,18.63,19.48,36.82,0,110.7,13.2,19.45,281.4
"2010-10-01 00:54:00",207769,3.205,319.2,0.201,0.024,18.66,107.559,18.63,19.47,36.92,0,110.8,13.2,19.45,281.2
"2010-10-01 00:54:30",207770,3.233,320.5,0.86,0.037,18.56,107.5506,18.61,19.45,37.03,0,110.7,13.2,19.42,282.5
"2010-10-01 00:55:00",207771,3.304,319.9,0.756,0.04,18.47,107.5318,18.56,19.44,37.16,0,110.7,13.2,19.38,281.9
"2010-10-01 00:55:30",207772,3.283,319.8,0.889,0.05,18.53,107.5287,18.55,19.44,37.11,0,110.7,13.2,19.37,281.8
"2010-10-01 00:56:00",207773,3.153,320,0.873,0.074,18.78,107.5287,18.55,19.43,36.9,0,110.7,13.2,19.37,282.0
"2010-10-01 00:56:30",207774,3.124,319.9,1.333,0.062,18.87,107.5287,18.55,19.41,36.94,0,110.7,13.2,19.37,281.9
"2010-10-01 00:57:00",207775,3.281,319.3,0.988,0.045,18.6,107.5287,18.55,19.44,37.03,0,110.7,13.2,19.37,281.3
"2010-10-01 00:57:30",207776,3.228,319.9,0.686,0.059,18.62,107.5287,18.55,19.43,37.03,0,110.7,13.21,19.37,281.9
"2010-10-01 00:58:00",207777,3.204,318.8,0.793,0.067,18.72,107.5287,18.55,19.42,37.03,0,110.7,13.21,19.37,280.8
"2010-10-01 00:58:30",207778,3.165,318.6,0.665,0.063,18.89,107.5287,18.55,19.45,37.23,0,110.7,13.21,19.37,280.6
"2010-10-01 00:59:00",207779,3.114,319.4,0.397,0.026,18.97,107.5287,18.55,19.41,37.24,0,110.7,13.21,19.37,281.4
"2010-10-01 00:59:30",207780,3.113,319.6,0.527,0.053,18.95,107.5287,18.55,19.42,37.22,0,110.7,13.21,19.37,281.6
"2010-10-01 01:00:00",207781,3.124,320.4,0.392,0.014,18.8,107.5239,18.54,19.41,37.37,0,110.7,13.21,19.36,282.4
"2010-10-01 01:00:30",207782,3.03,320.9,0.708,0.055,18.97,107.5076,18.5,19.41,37.37,0,110.7,13.22,19.31,282.9
"2010-10-01 01:01:00",207783,2.884,321.6,0.549,0.039,18.95,107.5113,18.51,19.41,37.07,0,110.7,13.22,19.32,283.6
"2010-10-01 01:01:30",207784,2.792,322.1,0.385,0.044,18.84,107.5164,18.52,19.41,37.04,0,110.7,13.22,19.34,284.1
"2010-10-01 01:02:00",207785,2.689,322.8,0.486,0.043,18.79,107.5303,18.55,19.41,36.91,0,110.7,13.22,19.37,284.8
"2010-10-01 01:02:30",207786,2.636,323,0.407,0.027,18.76,107.5354,18.57,19.41,36.84,0,110.7,13.22,19.38,285.0
"2010-10-01 01:03:00",207787,2.552,323.5,0.587,0.037,18.74,107.5357,18.57,19.42,36.78,0,110.7,13.22,19.39,285.5
"2010-10-01 01:03:30",207788,2.51,324.4,0.529,0.025,18.71,107.5384,18.58,19.43,36.72,0,110.7,13.22,19.39,286.4
"2010-10-01 01:04:00",207789,2.526,325.1,0.647,0.033,18.72,107.5456,18.59,19.45,36.67,0,110.7,13.22,19.41,287.1
"2010-10-01 01:04:30",207790,2.529,325.5,0.697,0.037,18.73,107.5505,18.61,19.45,36.64,0,110.7,13.22,19.42,287.5
"2010-10-01 01:05:00",207791,2.547,325.2,0.789,0.046,18.77,107.5553,18.62,19.47,36.61,0,110.7,13.22,19.44,287.2
"2010-10-01 01:05:30",207792,2.571,324.8,0.619,0.056,18.75,107.557,18.62,19.47,36.62,0,110.7,13.22,19.44,286.8
"2010-10-01 01:06:00",207793,2.612,325.7,0.636,0.036,18.81,107.5582,18.63,19.48,36.59,0,110.7,13.22,19.44,287.7
"2010-10-01 01:06:30",207794,2.579,325.9,0.55,0.03,18.77,107.5612,18.63,19.48,36.57,0,110.7,13.23,19.45,287.9
"2010-10-01 01:07:00",207795,2.614,326,0.73,0.039,18.8,107.5639,18.64,19.48,36.55,0,110.7,13.23,19.46,288.0
"2010-10-01 01:07:30",207796,2.609,325.8,0.825,0.037,18.81,107.5649,18.64,19.48,36.53,0,110.7,13.23,19.46,287.8
"2010-10-01 01:08:00",207797,2.662,325.3,0.682,0.028,18.88,107.5667,18.65,19.5,36.53,0,110.7,13.23,19.47,287.3
"2010-10-01 01:08:30",207798,2.685,324.6,0.565,0.023,18.9,107.5664,18.65,19.5,36.52,0,110.7,13.23,19.46,286.6
"2010-10-01 01:09:00",207799,2.7,324.6,0.501,0.022,18.92,107.5653,18.64,19.52,36.49,0,110.7,13.23,19.46,286.6
"2010-10-01 01:09:30",207800,2.701,325,0.457,0.014,18.92,107.5656,18.65,19.5,36.47,0,110.7,13.22,19.46,287.0
"2010-10-01 01:10:00",207801,2.725,324.2,0.838,0.028,18.94,107.565,18.64,19.5,36.45,0,110.7,13.22,19.46,286.2
"2010-10-01 01:10:30",207802,2.762,323.6,0.586,0.032,18.97,107.565,18.64,19.51,36.45,0,110.7,13.22,19.46,285.6
"2010-10-01 01:11:00",207803,2.802,323,0.459,0.03,18.96,107.565,18.64,19.5,36.46,0,110.7,13.22,19.46,285.0
"2010-10-01 01:11:30",207804,2.814,322.6,0.741,0.036,18.94,107.565,18.64,19.51,36.47,0,110.7,13.22,19.46,284.6
"2010-10-01 01:12:00",207805,2.815,322.7,0.679,0.036,18.94,107.565,18.64,19.51,36.47,0,110.7,13.22,19.46,284.7
"2010-10-01 01:12:30",207806,2.847,322,0.491,0.024,18.91,107.565,18.64,19.51,36.48,0,110.7,13.22,19.46,284.0
"2010-10-01 01:13:00",207807,2.834,322.2,0.526,0.032,18.9,107.565,18.64,19.51,36.49,0,110.7,13.22,19.46,284.2
"2010-10-01 01:13:30",207808,2.852,322.4,0.474,0.012,18.98,107.565,18.64,19.52,36.51,0,110.7,13.22,19.46,284.4
"2010-10-01 01:14:00",207809,2.88,322.6,0.531,0.03,19.05,107.565,18.64,19.52,36.54,0,110.7,13.22,19.46,284.6
"2010-10-01 01:14:30",207810,2.921,323.3,0.573,0.023,19.03,107.5647,18.64,19.52,36.62,0,110.7,13.23,19.46,285.3
"2010-10-01 01:15:00",207811,2.989,324.2,0.453,0.033,18.64,107.558,18.63,19.51,36.71,0,110.7,13.23,19.44,286.2
"2010-10-01 01:15:30",207812,3.051,325,0.462,0.017,18.52,107.5377,18.57,19.49,36.88,0,110.7,13.23,19.39,287.0
"2010-10-01 01:16:00",207813,3.002,326.6,0.676,0.028,18.58,107.5333,18.56,19.48,36.82,0,110.7,13.23,19.38,288.6
"2010-10-01 01:16:30",207814,3.027,327.9,0.327,0.028,18.58,107.5343,18.57,19.48,36.92,0,110.7,13.23,19.38,289.9
"2010-10-01 01:17:00",207815,3.015,328.4,0.501,0.027,18.48,107.5346,18.57,19.46,37.05,0,110.7,13.23,19.38,290.4
"2010-10-01 01:17:30",207816,2.999,329.1,0.034,0.024,18.47,107.5251,18.54,19.45,37.12,0,110.7,13.23,19.36,291.1
"2010-10-01 01:18:00",207817,3.001,328.4,0.496,0.025,18.53,107.5104,18.5,19.43,37.12,0,110.7,13.23,19.32,290.4
"2010-10-01 01:18:30",207818,3.021,329.1,0.02,0.033,18.55,107.5102,18.5,19.41,37.2,0,110.7,13.23,19.32,291.1
"2010-10-01 01:19:00",207819,3.049,329.7,0.53,0.016,18.66,107.5159,18.52,19.41,37.17,0,110.7,13.23,19.33,291.7
"2010-10-01 01:19:30",207820,3.053,330.4,0.46,0.003,18.6,107.518,18.52,19.41,37.25,0,110.7,13.23,19.34,292.4
"2010-10-01 01:20:00",207821,3.017,331.5,0.467,0.031,18.5,107.5229,18.54,19.38,37.37,0,110.7,13.24,19.35,293.5
"2010-10-01 01:20:30",207822,3.008,331.4,0.441,0.033,18.54,107.517,18.52,19.38,37.4,0,110.7,13.24,19.34,293.4
"2010-10-01 01:21:00",207823,2.993,331,0.597,0.027,18.53,107.4999,18.48,19.36,37.42,0,110.7,13.24,19.29,293.0
"2010-10-01 01:21:30",207824,3.08,330.9,0.452,0.034,18.56,107.4954,18.47,19.35,37.44,0,110.7,13.24,19.28,292.9
"2010-10-01 01:22:00",207825,3.109,329.9,0.398,0.01,18.56,107.4926,18.46,19.35,37.45,0,110.7,13.24,19.27,291.9
"2010-10-01 01:22:30",207826,3.112,329.2,0.395,0.026,18.56,107.4918,18.46,19.34,37.48,0,110.7,13.24,19.27,291.2
"2010-10-01 01:23:00",207827,3.154,329.6,0.595,0.037,18.53,107.4949,18.46,19.34,37.46,0,110.6,13.24,19.28,291.6
"2010-10-01 01:23:30",207828,3.159,330,0.187,0.036,18.54,107.4958,18.47,19.34,37.46,0,110.7,13.24,19.28,292.0
"2010-10-01 01:24:00",207829,3.198,329.8,0.45,0.027,18.61,107.4982,18.47,19.34,37.42,0,110.7,13.24,19.29,291.8
"2010-10-01 01:24:30",207830,3.212,329.4,0.511,0.051,18.62,107.4997,18.48,19.34,37.42,0,110.6,13.24,19.29,291.4
"2010-10-01 01:25:00",207831,3.129,328.5,0.69,0.032,18.54,107.5,18.48,19.33,37.4,0,110.6,13.24,19.29,290.5
"2010-10-01 01:25:30",207832,3.141,325.4,1.401,0.037,18.69,107.5014,18.48,19.33,37.25,0,110.6,13.24,19.30,287.4
"2010-10-01 01:26:00",207833,3.112,323.8,0.519,0.002,18.66,107.5146,18.51,19.36,37.1,0,110.6,13.25,19.33,285.8
"2010-10-01 01:26:30",207834,3.061,322.6,0.512,0.024,18.65,107.5335,18.56,19.36,36.95,0,110.6,13.24,19.38,284.6
"2010-10-01 01:27:00",207835,3.058,322,0.02,0.006,18.72,107.5338,18.56,19.39,36.9,0,110.6,13.24,19.38,284.0
"2010-10-01 01:27:30",207836,3.067,322.2,0.426,0.025,18.64,107.5338,18.56,19.4,36.9,0,110.6,13.23,19.38,284.2
"2010-10-01 01:28:00",207837,3.032,322.8,0.446,0.032,18.68,107.5341,18.56,19.41,36.93,0,110.6,13.23,19.38,284.8
"2010-10-01 01:28:30",207838,3.012,323.4,0.461,0.033,18.65,107.5352,18.57,19.41,36.99,0,110.6,13.23,19.38,285.4
"2010-10-01 01:29:00",207839,2.979,324.7,0.648,0.025,18.62,107.5338,18.56,19.42,37.07,0,110.6,13.23,19.38,286.7
"2010-10-01 01:29:30",207840,2.92,326.8,0.827,0.012,18.71,107.5338,18.56,19.41,37.09,0,110.6,13.23,19.38,288.8
"2010-10-01 01:30:00",207841,2.857,328.2,0.421,0.018,18.81,107.5338,18.56,19.4,37.1,0,110.6,13.23,19.38,290.2
"2010-10-01 01:30:30",207842,2.828,329.7,0.532,0.036,18.83,107.5332,18.56,19.4,37.08,0,110.6,13.24,19.38,291.7
"2010-10-01 01:31:00",207843,2.806,330,0.42,0.036,18.82,107.5152,18.52,19.39,37.11,0,110.6,13.24,19.33,292.0
"2010-10-01 01:31:30",207844,2.861,331.2,1.415,0.068,18.68,107.5,18.48,19.39,37.11,0,110.6,13.24,19.29,293.2
"2010-10-01 01:32:00",207845,2.84,332.6,0.683,0.029,18.69,107.5,18.48,19.36,37.14,0,110.6,13.25,19.29,294.6
"2010-10-01 01:32:30",207846,2.888,334.5,1.105,0.045,18.45,107.5,18.48,19.35,37.09,0,110.6,13.25,19.29,296.5
"2010-10-01 01:33:00",207847,2.898,335.5,0.58,0.057,18.44,107.4904,18.45,19.34,37.08,0,110.6,13.25,19.27,297.5
"2010-10-01 01:33:30",207848,2.875,335.2,0.955,0.057,18.51,107.4749,18.41,19.33,37.14,0,110.6,13.25,19.23,297.2
"2010-10-01 01:34:00",207849,2.916,334.6,1.159,0.05,18.49,107.4673,18.39,19.32,37.21,0,110.6,13.25,19.21,296.6
"2010-10-01 01:34:30",207850,2.885,335.1,0.642,0.044,18.44,107.4662,18.39,19.32,37.16,0,110.6,13.25,19.21,297.1
"2010-10-01 01:35:00",207851,2.858,335.2,1.207,0.033,18.5,107.4662,18.39,19.29,37.18,0,110.6,13.25,19.21,297.2
"2010-10-01 01:35:30",207852,2.882,333.3,1.314,0.04,18.64,107.4662,18.39,19.3,37.26,0,110.6,13.25,19.21,295.3
"2010-10-01 01:36:00",207853,2.87,331.3,0.596,0.03,18.79,107.4662,18.39,19.29,37.33,0,110.6,13.25,19.21,293.3
"2010-10-01 01:36:30",207854,2.85,330.6,0.653,0.027,18.81,107.4662,18.39,19.29,37.35,0,110.6,13.25,19.21,292.6
"2010-10-01 01:37:00",207855,2.914,331.1,0.197,0.034,18.62,107.4662,18.39,19.3,37.35,0,110.6,13.25,19.21,293.1
"2010-10-01 01:37:30",207856,2.988,330.9,0.751,0.028,18.53,107.4662,18.39,19.29,37.29,0,110.6,13.25,19.21,292.9
"2010-10-01 01:38:00",207857,2.972,330.4,0.613,0.052,18.52,107.4662,18.39,19.28,37.32,0,110.6,13.25,19.21,292.4
"2010-10-01 01:38:30",207858,2.898,329.5,0.531,0.017,18.64,107.4662,18.39,19.28,37.39,0,110.6,13.25,19.21,291.5
"2010-10-01 01:39:00",207859,2.932,329.4,0.587,0.046,18.57,107.4665,18.39,19.29,37.39,0,110.6,13.25,19.21,291.4
"2010-10-01 01:39:30",207860,2.941,329.3,0.614,0.038,18.52,107.4662,18.39,19.28,37.36,0,110.6,13.25,19.21,291.3
"2010-10-01 01:40:00",207861,3.017,328.7,0.658,0.043,18.37,107.4662,18.39,19.3,37.31,0,110.6,13.25,19.21,290.7
"2010-10-01 01:40:30",207862,3.013,328.5,0.661,0.047,18.34,107.468,18.4,19.29,37.31,0,110.6,13.25,19.21,290.5
"2010-10-01 01:41:00",207863,3.023,328,0.672,0.03,18.35,107.4707,18.4,19.28,37.34,0,110.6,13.25,19.22,290.0
"2010-10-01 01:41:30",207864,3.039,328.5,0.92,0.047,18.37,107.4723,18.41,19.28,37.31,0,110.6,13.25,19.22,290.5
"2010-10-01 01:42:00",207865,3.046,327.9,0.606,0.039,18.34,107.4747,18.41,19.28,37.32,0,110.6,13.25,19.23,289.9
"2010-10-01 01:42:30",207866,3.001,328.4,1.029,0.042,18.37,107.4798,18.43,19.28,37.3,0,110.6,13.26,19.24,290.4
"2010-10-01 01:43:00",207867,3.014,329,1.121,0.071,18.43,107.4829,18.43,19.27,37.29,0,110.6,13.25,19.25,291.0
"2010-10-01 01:43:30",207868,2.974,328.9,1.053,0.049,18.46,107.4827,18.43,19.28,37.3,0,110.6,13.25,19.25,290.9
"2010-10-01 01:44:00",207869,2.994,329.6,0.817,0.044,18.43,107.4832,18.43,19.26,37.23,0,110.6,13.25,19.25,291.6
"2010-10-01 01:44:30",207870,2.989,329,0.957,0.031,18.44,107.478,18.42,19.26,37.24,0,110.6,13.25,19.24,291.0
"2010-10-01 01:45:00",207871,2.976,329,0.981,0.071,18.54,107.4734,18.41,19.27,37.29,0,110.6,13.25,19.23,291.0
"2010-10-01 01:45:30",207872,2.885,329.2,1.11,0.041,18.75,107.4703,18.4,19.27,37.25,0,110.6,13.25,19.22,291.2
"2010-10-01 01:46:00",207873,2.916,329.7,0.587,0.025,18.69,107.4669,18.39,19.27,37.2,0,110.6,13.25,19.21,291.7
"2010-10-01 01:46:30",207874,2.814,327.7,0.971,0.074,18.73,107.4655,18.39,19.25,37.27,0,110.6,13.25,19.20,289.7
"2010-10-01 01:47:00",207875,2.746,327.2,0.855,0.062,18.73,107.4645,18.39,19.27,37.32,0,110.6,13.25,19.20,289.2
"2010-10-01 01:47:30",207876,2.801,327.6,0.503,0.038,18.73,107.4632,18.38,19.25,37.29,0,110.6,13.25,19.20,289.6
"2010-10-01 01:48:00",207877,2.732,326.4,0.841,0.045,18.69,107.4648,18.39,19.27,37.33,0,110.6,13.25,19.20,288.4